Nantucket, MA

3:50 AM EST on February 09, 2016 (GMT -0500)
Nantucket Memorial

Weather History for KACK - August, 2012

Change the Weather History Date:

Wednesday, August 22, 2012

  Actual Average Record
Temperature  
Mean Temperature 70 °F -  
Max Temperature 80 °F 74 °F 92 °F (1976)
Min Temperature 62 °F 59 °F 46 °F (1969)
Cooling Degree Days 6    
Growing Degree Days 20 (Base 50)    
Moisture  
Dew Point 65 °F    
Average Humidity 86    
Maximum Humidity 100    
Minimum Humidity 50    
Precipitation  
Precipitation 0.00 in - - ()
Sea Level Pressure  
Sea Level Pressure 30.12 in    
Wind  
Wind Speed 3 mph (SSW)    
Max Wind Speed 9 mph    
Max Gust Speed -    
Visibility 8 miles    
Events      
Averages and records for this station are not official NWS values.
T = Trace of Precipitation, MM = Missing Value Source: NWS Daily Summary

Daily Weather History Graph

Daily Weather History Graph

Search for Another Location

Airport or City:

Trip Planner

Search our weather history database for the weather conditions in past years. The results will help you decide how hot, cold, wet, or windy it might be!

Date:

Astronomy

Aug. 22, 2012 Rise Set
Actual Time 5:57 AM EDT 7:28 PM EDT
Civil Twilight 5:28 AM EDT 7:57 PM EDT
Nautical Twilight 4:52 AM EDT 8:32 PM EDT
Astronomical Twilight 4:15 AM EDT 9:09 PM EDT
Moon 11:36 AM EDT (8/22) 10:02 PM EDT (8/22)
Length of Visible Light 14h 29m
Length of Day
13h 31m
Waxing Crescent, 29% of the Moon is Illuminated
Aug 22
Waxing Crescent
Aug 24
First Quarter
Aug 31
Full
Sep 8
Last Quarter
Sep 15
New

Hourly Weather History & Observations

Time (EDT) Temp. Dew Point Humidity Pressure Visibility Wind Dir Wind Speed Gust Speed Precip Events Conditions
12:53 AM 68.0 °F 66.0 °F 93% 30.09 in 7.0 mi WSW 3.5 mph - N/A   Clear
1:53 AM 66.9 °F 64.9 °F 93% 30.08 in 9.0 mi Calm Calm - N/A   Clear
2:53 AM 66.9 °F 64.9 °F 93% 30.09 in 10.0 mi West 4.6 mph - N/A   Clear
3:53 AM 66.9 °F 64.9 °F 93% 30.09 in 10.0 mi WNW 5.8 mph - N/A   Clear
4:53 AM 64.9 °F 63.0 °F 93% 30.09 in 9.0 mi Calm Calm - N/A   Clear
5:53 AM 63.0 °F 62.1 °F 97% 30.10 in 2.5 mi Calm Calm - N/A   Clear
6:01 AM 62.6 °F 62.6 °F 100% 30.10 in 5.0 mi Calm Calm - N/A   Clear
6:53 AM 63.0 °F 63.0 °F 100% 30.11 in 8.0 mi Calm Calm - N/A   Clear
7:53 AM 73.0 °F 66.0 °F 79% 30.11 in 10.0 mi NW 4.6 mph - N/A   Clear
8:53 AM 75.0 °F 64.0 °F 69% 30.12 in 10.0 mi NNW 5.8 mph - N/A   Clear
9:53 AM 77.0 °F 63.0 °F 62% 30.14 in 10.0 mi Calm Calm - N/A   Clear
10:53 AM 77.0 °F 64.9 °F 66% 30.14 in 10.0 mi North 9.2 mph - N/A   Clear
11:53 AM 79.0 °F 59.0 °F 50% 30.14 in 10.0 mi NW 8.1 mph - N/A   Clear
12:53 PM 75.0 °F 66.0 °F 73% 30.14 in 10.0 mi SE 5.8 mph - N/A   Clear
1:53 PM 75.9 °F 66.9 °F 74% 30.14 in 10.0 mi SSE 5.8 mph - N/A   Clear
2:53 PM 75.9 °F 66.9 °F 74% 30.13 in 10.0 mi SSE 4.6 mph - N/A   Clear
3:53 PM 73.9 °F 66.9 °F 79% 30.12 in 10.0 mi SSE 6.9 mph - N/A   Clear
4:53 PM 73.9 °F 66.9 °F 79% 30.12 in 10.0 mi SSE 3.5 mph - N/A   Clear
5:53 PM 71.6 °F 66.2 °F 83% 30.11 in 10.0 mi SE 4.6 mph - N/A   Clear
6:53 PM 70.0 °F 68.0 °F 93% 30.12 in 10.0 mi SSE 3.5 mph - N/A   Clear
7:53 PM 66.9 °F 66.0 °F 97% 30.13 in 9.0 mi Calm Calm - N/A   Clear
8:53 PM 66.9 °F 66.0 °F 97% 30.14 in 9.0 mi SSE 3.5 mph - N/A   Clear
9:53 PM 64.9 °F 64.0 °F 97% 30.14 in 6.0 mi Calm Calm - N/A   Clear
10:32 PM 66.2 °F 64.4 °F 94% 30.14 in 1.8 mi Calm Calm - N/A   Clear
10:44 PM 64.4 °F 64.4 °F 100% 30.14 in 3.0 mi Calm Calm - N/A   Clear
10:53 PM 64.0 °F 63.0 °F 96% 30.15 in 9.0 mi Calm Calm - N/A   Clear